Погода в Калдаш-да-Раинья

Португалия     39°24′37″N   9°08′23″W
темп.,
°C
ветер,
м/с
пор.,
м/с
влажн.,
%
обл.,
%
осадки,
мм/ч
давл.,
гПа
погр.,
м
23 мая, пн
пн2301:00+16ссз679023 0.4 1017475
04:00+16ссз67855 0.0 1017464
07:00+16ссз5680100 0.0 1016405
10:00+16с358494 0.0 1017305
13:00+17ссз7887100 0.1 1016575
16:00+17ссз897898 0.0 1017789
19:00+16с91079100 0.1 1016900
22:00+16с1011730 0.0 10171040
24 мая, вт
вт2401:00+16с1012733 0.1 10171120
04:00+16с10117111 0.0 10161088
07:00+16с1112719 0.1 10171227
10:00+16с111267100 0.1 10181310
13:00+16ссз101270100 0.1 10191229
16:00+16ссз101272100 0.0 10181163
19:00+16ссз111274100 0.1 10181201
22:00+16с111376100 0.0 10201086
25 мая, ср
ср2501:00+16с111377100 0.0 10201012
04:00+16с111377100 0.0 1020979
07:00+16с101276100 0.0 1021777
10:00+16ссв9107398 0.0 1022576
13:00+16с99705 0.0 1022423
16:00+16с1011765 0.0 1021433
19:00+17с1013835 0.0 1021509
22:00+17ссв9148666 0.0 1022444
26 мая, чт
чт2601:00+17ссв710893 0.0 1021296
04:00+17св46792 0.0 1020133
07:00+17в22625 0.0 102026
10:00+20св24545 0.0 102195
13:00+20с57660 0.0 1021244
16:00+19с610730 0.0 1019161
19:00+18с610790 0.0 1019247
22:00+18с58833 0.0 1020143
27 мая, пт
пт2701:00+17ссв68833 0.0 1019133
04:00+18св22685 0.0 101716
07:00+19вюв365739 0.0 101860
10:00+21вюв235844 0.0 101858
13:00+21ссз446267 0.0 1018224
16:00+20сз567320 0.0 101677
19:00+20ссз33774 0.0 101552
22:00+19з44840 0.0 101526